Location: Sungai Bunut
(2.6333°N, 113.7333°E)
Time: 09:56:47
(UTC+00:00)

Courier 1B - Pass Details

Date: 08 December 2023
Orbit: 962 x 1209 km, 28.3° (Epoch: 03 March)

Event Time Altitude Azimuth Distance (km) Brightness Sun altitude
Exits shadow 18:43:43 22° 113° (ESE) 2,352 9.8 -49.2°
Drops below altitude 10° 18:46:48 10° 94° (E) 3,078 10.5 -48.5°
Sets 18:49:58 0° 83° (E) 4,007 11.2 -47.8°
